TimeCST,TemperatureF,Dew PointF,Humidity,Sea Level PressureIn,VisibilityMPH,Wind Direction,Wind SpeedMPH,Gust SpeedMPH,PrecipitationIn,Events,Conditions,WindDirDegrees,DateUTC
12:01 AM,26.6,24.8,93,30.16,10.0,North,-9999.0,-,N/A,,Overcast,0,2013-12-09 06:01:00
12:57 AM,26.1,21.9,84,30.21,10.0,Variable,6.9,-,N/A,,Overcast,0,2013-12-09 06:57:00
1:36 AM,24.8,21.2,86,30.17,10.0,NW,9.2,-,N/A,,Scattered Clouds,310,2013-12-09 07:36:00
1:57 AM,24.8,21.2,86,30.17,10.0,NW,11.5,-,N/A,,Mostly Cloudy,310,2013-12-09 07:57:00
1:59 AM,24.1,21.0,88,30.22,10.0,NW,10.4,-,N/A,,Mostly Cloudy,310,2013-12-09 07:59:00
2:39 AM,24.8,21.2,86,30.17,10.0,NW,9.2,-,N/A,,Overcast,310,2013-12-09 08:39:00
2:51 AM,24.8,21.2,86,30.17,10.0,NW,8.1,-,N/A,,Overcast,320,2013-12-09 08:51:00
2:57 AM,24.1,21.0,88,30.22,10.0,NW,8.1,-,N/A,,Overcast,320,2013-12-09 08:57:00
3:57 AM,24.1,19.9,84,30.22,10.0,NW,8.1,-,N/A,,Overcast,320,2013-12-09 09:57:00
4:57 AM,24.1,19.9,84,30.23,10.0,NNW,9.2,-,N/A,,Overcast,330,2013-12-09 10:57:00
5:57 AM,23.0,19.0,85,30.26,10.0,NNW,12.7,-,N/A,,Overcast,330,2013-12-09 11:57:00
6:57 AM,21.9,18.0,85,30.28,10.0,North,6.9,-,N/A,,Overcast,360,2013-12-09 12:57:00
7:57 AM,21.2,17.6,86,30.27,10.0,North,5.8,-,N/A,,Overcast,350,2013-12-09 13:57:00
7:59 AM,21.9,17.1,82,30.32,10.0,NNW,4.6,-,N/A,,Overcast,340,2013-12-09 13:59:00
8:57 AM,23.0,17.1,78,30.35,10.0,North,9.2,-,N/A,,Overcast,350,2013-12-09 14:57:00
9:57 AM,23.0,17.1,78,30.36,10.0,NNW,9.2,-,N/A,,Overcast,340,2013-12-09 15:57:00
10:57 AM,24.1,17.1,75,30.35,10.0,North,9.2,-,N/A,,Overcast,10,2013-12-09 16:57:00
11:50 AM,24.8,17.6,74,30.30,10.0,North,10.4,-,N/A,,Scattered Clouds,350,2013-12-09 17:50:00
11:57 AM,24.1,16.0,71,30.33,10.0,North,8.1,-,N/A,,Partly Cloudy,350,2013-12-09 17:57:00
12:57 PM,23.0,16.0,74,30.30,10.0,NNE,10.4,-,N/A,,Clear,20,2013-12-09 18:57:00
1:57 PM,24.1,15.1,69,30.29,10.0,NNE,12.7,-,N/A,,Clear,20,2013-12-09 19:57:00
2:57 PM,23.0,12.9,65,30.27,10.0,NNE,12.7,-,N/A,,Clear,20,2013-12-09 20:57:00
3:57 PM,21.9,12.9,68,30.27,10.0,NNE,10.4,-,N/A,,Clear,20,2013-12-09 21:57:00
4:57 PM,21.9,14.0,72,30.29,10.0,North,5.8,-,N/A,,Overcast,10,2013-12-09 22:57:00
5:57 PM,21.0,14.0,74,30.29,10.0,North,9.2,-,N/A,,Overcast,360,2013-12-09 23:57:00
6:57 PM,21.0,14.0,74,30.30,10.0,North,8.1,-,N/A,,Overcast,10,2013-12-10 00:57:00
7:57 PM,21.0,15.1,78,30.33,10.0,North,-9999.0,-,N/A,,Overcast,0,2013-12-10 01:57:00
8:57 PM,19.9,16.0,85,30.35,10.0,North,-9999.0,-,N/A,,Overcast,0,2013-12-10 02:57:00
9:57 PM,19.9,17.1,89,30.36,4.0,North,-9999.0,-,0.00,Snow,Light Snow,0,2013-12-10 03:57:00
10:16 PM,19.4,17.6,93,30.30,4.0,North,-9999.0,-,0.00,Snow,Light Snow,0,2013-12-10 04:16:00
10:22 PM,19.4,17.6,93,30.30,4.0,NW,3.5,-,0.00,Snow,Light Snow,310,2013-12-10 04:22:00
10:53 PM,19.4,17.6,93,30.30,4.0,WNW,5.8,-,0.00,Snow,Light Snow,300,2013-12-10 04:53:00
10:57 PM,19.9,17.1,89,30.35,4.0,WNW,5.8,-,0.00,Snow,Light Snow,300,2013-12-10 04:57:00
11:07 PM,19.4,17.6,93,30.30,5.0,North,-9999.0,-,0.00,Snow,Light Snow,0,2013-12-10 05:07:00
11:47 PM,19.4,17.6,93,30.31,5.0,WNW,9.2,-,0.00,Snow,Light Snow,300,2013-12-10 05:47:00
11:57 PM,19.9,17.1,89,30.36,5.0,NW,10.4,-,0.00,Snow,Light Snow,310,2013-12-10 05:57:00